Tracking 25656 objects as of 21-May-2022
HD Live streaming from Space Station
objects crossing your sky now

COSMOS 1275 DEB

Track COSMOS 1275 DEB now!
10-day predictions


NORAD ID: 42144
Int'l Code: 1981-053RG
Perigee: 909.6 km
Apogee: 997.1 km
Inclination: 82.8 °
Period: 104.0 minutes
Semi major axis: 7324 km
RCS: Unknown
Launch date: June 4, 1981
Source: Commonwealth of Independent States (former USSR) (CIS)
Launch site: PLESETSK MISSILE AND SPACE COMPLEX (PKMTR)

Note: This is SATELLITE DEBRIS
aabbcc
Your satellite tracking list
Your tracking list is empty




NASA's NSSDC Master Catalog

Two Line Element Set (TLE):
1 42144U 81053RG  22141.08655639  .00000651  00000-0  55490-3 0  9992
2 42144  82.8073  10.8614 0059730 337.5763 177.2536 13.85002389429312
Source of the keplerian elements: AFSPC